Powrót do katalogu

SL-16 R/B

AktywnyLEO
NORAD 17974·ROCKET BODY·🇷🇺 Russia

Wystrzelony May 13, 1987 z Baikonur Cosmodrome

Loading…

Następne Przeloty (najbliższe 24 godziny)

TLE

ŚwieżeSource: Space-Track

Epoka: Sep 14, 2026, 13:13 UTC

1 17974U 87041B   26257.55117689 -.00000125  00000-0 -37740-4 0  9997
2 17974  71.0108 354.6392 0016141 275.6271  95.1648 14.17665040 34860

Śledź SL-16 R/B w czasie rzeczywistym z AllMySat

Download on the App Store